Regional Weather Roundup
Issued by NWS

Home | Current Version | Previous Version | Graphics & Text | Print | Product List | Glossary On
Versions: 1 2 3 4 5 6 7 8 9 10 11 12 13 14 15 16 17 18 19 20 21 22 23 24 25 26 27 28
000
ASUS45 KSLC 230110
RWRUT

UTAH REGIONAL WEATHER ROUNDUP
NATIONAL WEATHER SERVICE SALT LAKE CITY UT
700 PM MDT SAT JUL 22 2017

UTZ001>011-023>025-230200-

NORTHERN UTAH

CITY           SKY/WX    TMP DP  RH WIND       PRES   REMARKS
BRIGHAM CITY   MOSUNNY   95  21   7 N3        30.05S
HILL AFB       NOT AVBL
LOGAN          MOSUNNY   95  34  11 N6        30.06F HX  90
OGDEN          SUNNY     94  37  13 NW5       30.04F
SALT LAKE CITY PTSUNNY   95  45  17 N9        30.03S HX  91
TOOELE VALLEY  PTSUNNY   90  55  31 N7        30.06S
WENDOVER       SUNNY     96  39  13 E9        30.02F HX  91
HEBER CITY     CLOUDY    86  52  30 NW3       30.15S
WEST JORDAN    PTSUNNY   91  59  34 CALM      30.08S

$$

UTZ011>015-024>027-230200-

CENTRAL/NORTHEAST UTAH

CITY           SKY/WX    TMP DP  RH WIND       PRES   REMARKS
PROVO AIRPORT  PTSUNNY   88  61  40 VRB5      30.07F
MOAB/CANYONLAN SUNNY     96  41  15 E13       29.99S HX  92
DELTA          CLOUDY    90  32  12 NE7       30.07F
PRICE          PTSUNNY   83  50  31 N6        30.16S
RICHFIELD      SUNNY     88  45  22 N16       30.11S
ROOSEVELT      CLOUDY    90  34  13 CALM      30.12F
VERNAL         SUNNY     90  45  21 SW7       30.10S

$$

UTZ013>016-019>022-027-230200-

SOUTHERN UTAH

CITY           SKY/WX    TMP DP  RH WIND       PRES   REMARKS
BRYCE CANYON   PTSUNNY   81  48  31 N6        30.30S
CEDAR CITY     CLOUDY    83  45  26 W5        30.12F
MILFORD        PTSUNNY   97  39  13 N14       30.03F HX  92
ST GEORGE      CLOUDY    97  53  22 SE7       29.88F HX  94
HANKSVILLE     SUNNY     95  39  14 NE10      30.03S HX  91
KANAB          SUNNY     90  52  27 CALM      30.08F
BLANDING       CLOUDY    76  46  35 N18G28    30.26R

$$

REGIONAL REPORTS     COLORADO/ARIZONA

CITY           SKY/WX    TMP DP  RH WIND       PRES   REMARKS
CRAIG, CO      SUNNY     87  26  11 NE3       30.20S
GRAND JUNCTION CLOUDY    93  50  23 W9        30.03S HX  90
RIFLE, CO      CLOUDY    92  37  14 N10       30.11R
MONTROSE, CO   CLOUDY    83  50  31 S13       30.17R
CORTEZ, CO     CLOUDY    76  54  46 NE8       30.18R
COLORADO CITY    N/A     88  54  31 CALM      30.09S
PAGE, AZ       MOSUNNY   95  46  18 E14       29.99R HX  91
GRAND CANYON   MOSUNNY   85  39  19 NE12      30.20F
KINGMAN, AZ    MOSUNNY   99  54  22 SW12      29.92F HX  97
FLAGSTAFF, AZ  PTSUNNY   78  49  35 NE7       30.24R

$$

REGIONAL REPORTS    NEVADA/IDAHO/WYOMING

CITY           SKY/WX    TMP DP  RH WIND       PRES   REMARKS
LAS VEGAS, NV  MOSUNNY  107  50  15 VRB3      29.79S HX 104
ELY, NY        CLOUDY    78  43  28 SE16G25   30.22R
ELKO, NV       MOSUNNY   97  25   7 NE8       30.05F HX  90
POCATELLO, ID  SUNNY     90  28  11 W10       30.11F
BURLEY, ID     SUNNY     84  40  21 SW12      30.07F
FORT BRIDGER,    N/A     87  28  12 NW14G25   30.30S
EVANSTON, WY   CLOUDY    85  30  13 NW7       30.28F
ROCK SPRINGS,  SUNNY     86  22   9 VRB5      30.24F
KEMMERER, WY     N/A    N/A N/A N/A NW10      30.31S

$$




USA.gov is the U.S. government's official web portal to all federal, state and local government web resources and services.